La Junta, CO

2:42 AM MDT on March 27, 2017 (GMT -0600)
La Junta Municipal

Weather History for KLHX - October, 2012

Change the Weather History Date:

Monday, October 29, 2012

  Actual Average Record
Temperature  
Mean Temperature 53 °F 49 °F  
Max Temperature 71 °F 65 °F 90 °F (1950)
Min Temperature 34 °F 34 °F 13 °F (1991)
Degree Days  
Heating Degree Days 12 16  
Month to date heating degree days 350 316  
Since 1 July heating degree days 380 389  
Cooling Degree Days 0 0  
Month to date cooling degree days 3 7  
Year to date cooling degree days 1733 1223  
Growing Degree Days 2 (Base 50)    
Moisture  
Dew Point 27 °F    
Average Humidity 45    
Maximum Humidity 70    
Minimum Humidity 20    
Precipitation  
Precipitation 0.00 in 0.02 in 0.60 in (1959)
Month to date precipitation 0.26 0.86  
Year to date precipitation 5.52  
Sea Level Pressure  
Sea Level Pressure 30.05 in    
Wind  
Wind Speed 7 mph (West)    
Max Wind Speed 15 mph    
Max Gust Speed 17 mph    
Visibility 10 miles    
Events      
T = Trace of Precipitation, MM = Missing Value Source: NWS Daily Summary

Daily Weather History Graph

Daily Weather History Graph

Search for Another Location

Airport or City:

Trip Planner

Search our weather history database for the weather conditions in past years. The results will help you decide how hot, cold, wet, or windy it might be!

Date:

Astronomy

Oct. 29, 2012 Rise Set
Actual Time 7:17 AM MDT 5:57 PM MDT
Civil Twilight 6:50 AM MDT 6:24 PM MDT
Nautical Twilight 6:19 AM MDT 6:55 PM MDT
Astronomical Twilight 5:48 AM MDT 7:26 PM MDT
Moon 5:51 PM MDT (10/29) 7:09 AM MDT (10/29)
Length of Visible Light 11h 34m
Length of Day
10h 40m
Full, 100% of the Moon is Illuminated
Oct 29
Full
Oct 29
Full
Nov 6
Last Quarter
Nov 13
New
Nov 20
First Quarter

Hourly Weather History & Observations

Time (MDT) Temp. Windchill Dew Point Humidity Pressure Visibility Wind Dir Wind Speed Gust Speed Precip Events Conditions
12:53 AM 37.0 °F 28.5 °F 27.0 °F 67% 30.07 in 10.0 mi West 13.8 mph - N/A   Clear
1:53 AM 37.0 °F 29.3 °F 28.0 °F 70% 30.07 in 10.0 mi West 11.5 mph - N/A   Clear
2:53 AM 37.0 °F 28.9 °F 27.0 °F 67% 30.06 in 10.0 mi West 12.7 mph - N/A   Clear
3:53 AM 37.0 °F 28.9 °F 26.1 °F 65% 30.06 in 10.0 mi West 12.7 mph - N/A   Clear
4:53 AM 36.0 °F 27.1 °F 24.1 °F 62% 30.09 in 10.0 mi West 13.8 mph - N/A   Clear
5:53 AM 37.0 °F 31.6 °F 25.0 °F 62% 30.09 in 10.0 mi WSW 6.9 mph - N/A   Clear
6:53 AM 35.1 °F 28.6 °F 24.1 °F 64% 30.12 in 10.0 mi West 8.1 mph - N/A   Clear
7:53 AM 36.0 °F 31.1 °F 25.0 °F 64% 30.14 in 10.0 mi West 5.8 mph - N/A   Clear
8:53 AM 43.0 °F 36.0 °F 28.0 °F 56% 30.14 in 10.0 mi West 13.8 mph - N/A   Clear
9:53 AM 48.0 °F - 28.9 °F 48% 30.13 in 10.0 mi West 8.1 mph - N/A   Clear
10:53 AM 55.0 °F - 28.9 °F 37% 30.10 in 10.0 mi WSW 5.8 mph - N/A   Clear
11:53 AM 59.0 °F - 27.0 °F 29% 30.08 in 10.0 mi Calm Calm - N/A   Clear
12:53 PM 63.0 °F - 28.0 °F 27% 30.04 in 10.0 mi Calm Calm - N/A   Clear
1:53 PM 68.0 °F - 28.0 °F 22% 30.00 in 10.0 mi Variable 3.5 mph - N/A   Clear
2:53 PM 70.0 °F - 27.0 °F 20% 29.98 in 10.0 mi Calm Calm - N/A   Clear
3:53 PM 70.0 °F - 26.1 °F 19% 29.97 in 10.0 mi ESE 5.8 mph - N/A   Clear
4:53 PM 66.9 °F - 28.9 °F 24% 29.98 in 10.0 mi East 8.1 mph - N/A   Clear
5:53 PM 62.1 °F - 28.9 °F 29% 29.99 in 10.0 mi East 5.8 mph - N/A   Clear
6:53 PM 59.0 °F - 28.0 °F 31% 30.03 in 10.0 mi ENE 3.5 mph - N/A   Clear
7:53 PM 55.0 °F - 28.0 °F 35% 30.03 in 10.0 mi East 4.6 mph - N/A   Clear
8:53 PM 57.0 °F - 26.1 °F 30% 30.01 in 10.0 mi South 4.6 mph - N/A   Clear
9:53 PM 53.1 °F - 25.0 °F 34% 30.03 in 10.0 mi Calm Calm - N/A   Clear
10:53 PM 48.0 °F - 25.0 °F 41% 30.02 in 10.0 mi WNW 5.8 mph - N/A   Clear
11:53 PM 43.0 °F 37.7 °F 28.0 °F 56% 30.02 in 10.0 mi West 9.2 mph - N/A   Clear